Home   Weather   Örebro   Past weeks

Flag for Sweden Past Weather in Örebro, Sweden — Yesterday and Last 2 Weeks

Now
43 °F

Quite cool.


Feels Like: 39 °F
Forecast: 34 / 37 °F
Wind: 7 mph from Southwest

Location: Orebro Private

Current Time: Dec 9, 2016 at 2:51:40 am

Latest Report: Dec 9, 2016 at 2:20 am


Visibility: N/A

Pressure: 29.74 "Hg

Humidity: 87%

Dew Point: 39 °F

Location of ÖrebroLocation

Past Weather in Örebro — Graph

°F

Örebro Temperature Yesterday

Maximum temperature yesterday: 50 °F (at 7:50 am)
Minimum temperature yesterday: 41 °F (at 11:50 pm)
Average temperature yesterday: 48 °F

High & Low Weather Summary for the Past Weeks

 TemperatureHumidityPressure
High50 °F (Dec 8, 7:50 am)100% (Nov 24, 8:50 pm)30.42 "Hg (Nov 24, 8:50 pm)
Low14 °F (Dec 3, 8:50 pm)45% (Nov 27, 2:20 pm)29.45 "Hg (Nov 26, 4:20 pm)
Average35 °F82%29.94 "Hg
* Reported Nov 24 1:20 am — Dec 9 1:20 am, Örebro, Weather by CustomWeather, © 2016

Note: Actual official high and low records may vary slightly from our data, if they occured in-between our weather recording intervals... More about our weather records

Advertising

Örebro Weather History for the Previous 24 Hours

Scroll right to see more
 ConditionsComfort  
Time TempWeatherWind HumidityBarometerVisibility
1:20 am
Fri, Dec 9
43 °FQuite cool.8 mph87%29.74 "HgN/A
12:50 am43 °FClear.10 mph87%29.74 "Hg10 mi
12:20 am43 °FClear.10 mph87%29.74 "Hg10 mi
11:50 pm
Thu, Dec 8
41 °FClear.10 mph87%29.74 "Hg10 mi
11:20 pm43 °FClear.8 mph81%29.74 "Hg10 mi
10:50 pm43 °FClear.12 mph81%29.71 "Hg10 mi
10:20 pm46 °FClear.12 mph76%29.74 "Hg10 mi
9:50 pm46 °FClear.9 mph76%29.74 "Hg10 mi
9:20 pm46 °FClear.9 mph76%29.71 "Hg10 mi
8:20 pm50 °FClear.14 mph71%29.71 "Hg10 mi
7:50 pm50 °FClear.16 mph71%29.71 "Hg10 mi
7:20 pm50 °FClear.16 mph71%29.68 "Hg10 mi
6:50 pm50 °FClear.15 mph71%29.68 "Hg10 mi
6:20 pm48 °FClear.15 mph76%29.65 "Hg10 mi
5:50 pm48 °FClear.13 mph76%29.65 "Hg10 mi
5:20 pm48 °FClear.14 mph82%29.62 "Hg10 mi
4:50 pm48 °FClear.17 mph76%29.62 "Hg10 mi
4:20 pm48 °FClear.20 mph82%29.59 "Hg10 mi
3:50 pm48 °FClear.18 mph82%29.59 "Hg10 mi
3:20 pm48 °FClear.16 mph82%29.56 "Hg10 mi
2:50 pm50 °FSunny.17 mph82%29.56 "Hg10 mi
2:20 pm50 °FSunny.16 mph82%29.56 "Hg10 mi
1:50 pm50 °FSunny.15 mph82%29.53 "Hg10 mi
1:20 pm50 °FSunny.18 mph82%29.53 "Hg10 mi
12:50 pm50 °FScattered clouds.20 mph88%29.50 "HgN/A
12:20 pm50 °FPartly sunny.18 mph88%29.50 "HgN/A
11:50 am50 °FPartly sunny.17 mph88%29.50 "HgN/A
11:20 am50 °FPartly sunny.20 mph88%29.50 "HgN/A
10:50 am50 °FPartly sunny.22 mph88%29.47 "HgN/A
10:20 am50 °FPartly sunny.22 mph88%29.47 "HgN/A
9:50 am50 °FPartly sunny.22 mph94%29.50 "HgN/A
9:20 am50 °FLow clouds.21 mph94%29.50 "HgN/A
8:50 am50 °FMore clouds than sun.20 mph94%29.50 "HgN/A
8:20 am48 °FPassing clouds.23 mph100%29.50 "HgN/A
7:50 am50 °FLow clouds.21 mph94%29.50 "HgN/A
7:20 am48 °FLow clouds.21 mph100%29.50 "HgN/A
6:50 am48 °FLow clouds.22 mph100%29.50 "HgN/A
6:20 am48 °FLow clouds.20 mph100%29.53 "HgN/A
5:50 am48 °FLow clouds.17 mph100%29.53 "HgN/A
5:20 am48 °FFog.17 mph94%29.53 "Hg5 mi
4:50 am48 °FFog.17 mph100%29.56 "Hg3 mi
4:20 am46 °FFog.18 mph100%29.56 "Hg2 mi
3:20 am46 °FFog.17 mph100%29.59 "Hg4 mi
2:20 am46 °FFog.16 mph100%29.62 "Hg2 mi
Weather by CustomWeather, © 2016

See weather overviewHow to use our weather pages